TimePST,TemperatureF,Dew PointF,Humidity,Sea Level PressureIn,VisibilityMPH,Wind Direction,Wind SpeedMPH,Gust SpeedMPH,PrecipitationIn,Events,Conditions,WindDirDegrees,DateUTC
12:53 AM,55.0,48.9,80,30.02,9.0,Calm,Calm,-,N/A,,Overcast,0,2014-02-26 08:53:00
1:30 AM,55.0,48.9,80,30.05,9.0,Calm,Calm,-,N/A,,Mostly Cloudy,0,2014-02-26 09:30:00
1:53 AM,54.0,48.0,80,30.01,8.0,Calm,Calm,-,N/A,,Scattered Clouds,0,2014-02-26 09:53:00
2:53 AM,53.1,48.0,83,30.00,9.0,Calm,Calm,-,N/A,,Clear,0,2014-02-26 10:53:00
3:37 AM,53.1,48.0,83,30.03,8.0,Calm,Calm,-,N/A,,Mostly Cloudy,0,2014-02-26 11:37:00
3:53 AM,53.1,48.0,83,30.00,8.0,Calm,Calm,-,N/A,,Scattered Clouds,0,2014-02-26 11:53:00
4:16 AM,52.0,48.0,86,30.04,8.0,Calm,Calm,-,N/A,,Mostly Cloudy,0,2014-02-26 12:16:00
4:53 AM,52.0,46.9,83,30.02,8.0,SE,3.5,-,N/A,,Overcast,130,2014-02-26 12:53:00
5:31 AM,53.1,48.0,83,30.06,8.0,Calm,Calm,-,N/A,,Overcast,0,2014-02-26 13:31:00
5:53 AM,54.0,48.0,80,30.03,8.0,Calm,Calm,-,N/A,,Overcast,0,2014-02-26 13:53:00
6:53 AM,55.0,48.9,80,30.05,7.0,Calm,Calm,-,N/A,,Overcast,0,2014-02-26 14:53:00
7:53 AM,55.9,48.9,77,30.07,7.0,Calm,Calm,-,N/A,,Overcast,0,2014-02-26 15:53:00
8:53 AM,57.9,48.0,70,30.06,10.0,East,5.8,-,N/A,,Overcast,80,2014-02-26 16:53:00
9:53 AM,59.0,46.9,64,30.05,9.0,East,4.6,-,N/A,,Mostly Cloudy,80,2014-02-26 17:53:00
10:53 AM,61.0,45.0,56,30.03,10.0,East,6.9,-,N/A,,Scattered Clouds,90,2014-02-26 18:53:00
11:52 AM,60.8,44.6,55,-9999,10.0,WSW,4.6,-,N/A,,Overcast,250,2014-02-26 19:52:00
11:53 AM,61.0,44.1,54,30.03,10.0,WSW,4.6,-,N/A,,Scattered Clouds,250,2014-02-26 19:53:00
12:53 PM,62.1,45.0,53,30.01,10.0,West,4.6,-,N/A,,Overcast,280,2014-02-26 20:53:00
1:53 PM,64.0,46.0,52,29.99,10.0,SW,9.2,-,N/A,,Mostly Cloudy,220,2014-02-26 21:53:00
2:53 PM,64.0,46.0,52,29.99,10.0,SW,6.9,-,N/A,,Partly Cloudy,220,2014-02-26 22:53:00
3:53 PM,64.0,46.0,52,29.99,10.0,WSW,6.9,-,N/A,,Overcast,250,2014-02-26 23:53:00
4:53 PM,64.0,46.0,52,29.99,10.0,West,3.5,-,N/A,,Overcast,260,2014-02-27 00:53:00
5:53 PM,62.1,46.9,58,29.98,10.0,West,4.6,-,N/A,,Mostly Cloudy,280,2014-02-27 01:53:00
6:53 PM,60.1,48.9,67,30.00,10.0,West,8.1,-,N/A,,Mostly Cloudy,270,2014-02-27 02:53:00
7:53 PM,57.9,50.0,75,30.02,10.0,West,5.8,-,N/A,,Mostly Cloudy,270,2014-02-27 03:53:00
8:53 PM,57.9,50.0,75,30.01,10.0,Calm,Calm,-,N/A,,Mostly Cloudy,0,2014-02-27 04:53:00
9:53 PM,57.9,50.0,75,30.02,10.0,West,4.6,-,N/A,,Overcast,260,2014-02-27 05:53:00
10:53 PM,59.0,50.0,72,30.01,10.0,Calm,Calm,-,N/A,,Overcast,0,2014-02-27 06:53:00
11:53 PM,57.9,50.0,75,29.99,10.0,Calm,Calm,-,N/A,,Overcast,0,2014-02-27 07:53:00